Los Angeles, CA

7:21 AM PDT on March 29, 2017 (GMT -0700)
Los Angeles International

Weather History for KLAX - October, 2013

Change the Weather History Date:

Saturday, October 26, 2013

  Actual Average Record
Temperature  
Mean Temperature 63 °F 65 °F  
Max Temperature 67 °F 72 °F 91 °F (1983)
Min Temperature 58 °F 58 °F 49 °F (1975)
Degree Days  
Heating Degree Days 2 2  
Month to date heating degree days 23 26  
Since 1 July heating degree days 24 35  
Cooling Degree Days 0 2  
Month to date cooling degree days 71 59  
Year to date cooling degree days 662 527  
Growing Degree Days 12 (Base 50)    
Moisture  
Dew Point 58 °F    
Average Humidity 85    
Maximum Humidity 97    
Minimum Humidity 73    
Precipitation  
Precipitation 0.00 in 0.02 in 0.90 in (2004)
Month to date precipitation 0.02 0.42  
Year to date precipitation 2.66 9.52  
Since 1 July precipitation 0.05  
Sea Level Pressure  
Sea Level Pressure 30.04 in    
Wind  
Wind Speed 4 mph (WSW)    
Max Wind Speed 16 mph    
Max Gust Speed 20 mph    
Visibility 4 miles    
Events Fog    
T = Trace of Precipitation, MM = Missing Value Source: NWS Daily Summary

Daily Weather History Graph

Daily Weather History Graph

Search for Another Location

Airport or City:

Trip Planner

Search our weather history database for the weather conditions in past years. The results will help you decide how hot, cold, wet, or windy it might be!

Date:

Astronomy

Oct. 26, 2013 Rise Set
Actual Time 7:08 AM PDT 6:06 PM PDT
Civil Twilight 6:42 AM PDT 6:32 PM PDT
Nautical Twilight 6:13 AM PDT 7:01 PM PDT
Astronomical Twilight 5:44 AM PDT 7:30 PM PDT
Moon No Moon Rise 1:24 PM PDT (10/26)
Length of Visible Light 11h 49m
Length of Day
10h 58m
Waning Gibbous, 52% of the Moon is Illuminated
Oct 26
Waning Gibbous
Oct 26
Last Quarter
Nov 3
New
Nov 9
First Quarter
Nov 17
Full

Hourly Weather History & Observations

Time (PDT) Temp. Dew Point Humidity Pressure Visibility Wind Dir Wind Speed Gust Speed Precip Events Conditions
12:53 AM 61.0 °F 57.9 °F 90% 30.07 in 7.0 mi SW 3.5 mph - N/A   Mostly Cloudy
1:11 AM 60.8 °F 57.2 °F 88% 30.07 in 6.0 mi SW 4.6 mph - N/A   Mostly Cloudy
1:42 AM 60.8 °F 57.2 °F 88% 30.08 in 6.0 mi West 5.8 mph - N/A   Scattered Clouds
1:49 AM 60.8 °F 57.2 °F 88% 30.08 in 6.0 mi WSW 5.8 mph - N/A   Mostly Cloudy
1:53 AM 60.1 °F 57.9 °F 93% 30.08 in 6.0 mi West 5.8 mph - N/A   Scattered Clouds
2:04 AM 60.8 °F 57.2 °F 88% 30.08 in 5.0 mi WSW 3.5 mph - N/A   Mostly Cloudy
2:53 AM 60.1 °F 57.9 °F 93% 30.08 in 4.0 mi West 4.6 mph - N/A   Overcast
3:53 AM 60.1 °F 59.0 °F 96% 30.06 in 4.0 mi Calm Calm - N/A   Overcast
4:33 AM 59.0 °F 57.2 °F 94% 30.06 in 3.0 mi Calm Calm - N/A   Overcast
4:53 AM 59.0 °F 57.0 °F 93% 30.06 in 2.0 mi NNE 4.6 mph - N/A   Overcast
5:11 AM 59.0 °F 57.2 °F 94% 30.06 in 1.0 mi Calm Calm - N/A Fog Patches of Fog
5:53 AM 59.0 °F 57.9 °F 96% 30.07 in 1.5 mi Calm Calm - N/A Fog Patches of Fog
6:33 AM 59.0 °F 57.2 °F 94% 30.07 in 0.8 mi East 3.5 mph - N/A Fog Patches of Fog
6:53 AM 59.0 °F 57.9 °F 96% 30.07 in 0.5 mi Calm Calm - N/A Fog Fog
7:18 AM 59.0 °F 59.0 °F 100% 30.08 in 1.2 mi Calm Calm - N/A   Overcast
7:38 AM 59.0 °F 57.2 °F 94% 30.08 in 0.5 mi NE 3.5 mph - N/A Fog Fog
7:53 AM 59.0 °F 57.9 °F 96% 30.08 in 0.5 mi Calm Calm - N/A Fog Fog
8:28 AM 60.8 °F 57.2 °F 88% 30.09 in 1.0 mi Calm Calm - N/A   Overcast
8:53 AM 60.1 °F 57.9 °F 93% 30.09 in 1.5 mi Calm Calm - N/A   Overcast
9:53 AM 62.1 °F 59.0 °F 90% 30.09 in 2.0 mi Calm Calm - N/A   Overcast
10:39 AM 64.4 °F 57.2 °F 77% 30.08 in 3.0 mi WSW 4.6 mph - N/A   Haze
10:53 AM 64.0 °F 57.9 °F 80% 30.08 in 3.0 mi SW 4.6 mph - N/A   Haze
11:53 AM 64.9 °F 57.0 °F 75% 30.06 in 4.0 mi West 4.6 mph - N/A   Haze
12:53 PM 66.0 °F 57.0 °F 73% 30.04 in 4.0 mi West 9.2 mph - N/A   Haze
1:22 PM 64.4 °F 57.2 °F 77% 30.03 in 3.0 mi West 12.7 mph - N/A   Haze
1:32 PM 62.6 °F 57.2 °F 82% 30.03 in 1.5 mi WSW 13.8 mph - N/A   Haze
1:53 PM 63.0 °F 59.0 °F 87% 30.01 in 1.2 mi WNW 13.8 mph - N/A   Overcast
2:53 PM 62.1 °F 57.9 °F 86% 29.99 in 1.5 mi West 11.5 mph - N/A   Overcast
3:25 PM 64.4 °F 59.0 °F 83% 30.00 in 4.0 mi WSW 10.4 mph - N/A   Haze
3:53 PM 64.0 °F 59.0 °F 84% 29.99 in 6.0 mi West 10.4 mph - N/A   Haze
4:53 PM 64.0 °F 59.0 °F 84% 29.98 in 8.0 mi West 12.7 mph - N/A   Mostly Cloudy
5:53 PM 64.0 °F 59.0 °F 84% 29.96 in 8.0 mi West 8.1 mph - N/A   Mostly Cloudy
6:53 PM 64.0 °F 57.9 °F 80% 29.96 in 10.0 mi Calm Calm - N/A   Scattered Clouds
7:53 PM 64.0 °F 59.0 °F 84% 29.97 in 9.0 mi South 3.5 mph - N/A   Scattered Clouds
8:53 PM 63.0 °F 59.0 °F 87% 29.97 in 8.0 mi SSE 3.5 mph - N/A   Scattered Clouds
9:53 PM 64.0 °F 60.1 °F 87% 29.99 in 9.0 mi Calm Calm - N/A   Partly Cloudy
10:53 PM 63.0 °F 60.1 °F 90% 29.99 in 9.0 mi South 3.5 mph - N/A   Partly Cloudy
11:53 PM 61.0 °F 57.0 °F 87% 29.98 in 7.0 mi Calm Calm - N/A   Partly Cloudy